Date String (YYYY-MM-DD hh:mm:ss) UTC,Instrument flags,Ambient pressure (hPa),Sample flow (lpm),Bypass flow (lpm),Sample temperature (°C),Ambient temperature (°C),ASC tube jacket temperature (°C),LED temperature (°C),Box temperature (°C),Sample RH (%),Span deviation,Mass concentration (μg/m³),Mass concentration (μg/m³),Mass concentration (μg/m³)
DateTimeUTC,F1_M11,P_M11,Q1_M11,Q2_M11,T1_M11,T2_M11,T3_M11,T4_M11,T5_M11,U1_M11,ZSPAN_M11,X0_M11,X2_M11,X1_M11
2021-10-10 18:00:00,,0822.9,5.00,0.00,28.9,28.2,00.0,38.0,30.7,13.0,0000.0,0004.81,0001.73,0001.47
2021-10-10 18:01:00,,0822.8,5.01,0.00,28.9,28.2,00.0,38.0,30.7,13.2,0000.0,0003.84,0001.75,0001.48
2021-10-10 18:02:00,,0822.9,4.99,0.00,28.9,28.2,00.0,38.0,30.7,13.1,0000.0,0003.83,0001.74,0001.48
2021-10-10 18:03:00,,0822.8,5.00,0.00,28.9,28.2,00.0,38.0,30.7,12.9,0000.0,0003.81,0001.73,0001.48
2021-10-10 18:04:00,,0822.8,5.01,0.00,29.0,28.2,00.0,38.0,30.7,12.9,0000.0,0003.79,0001.74,0001.48
2021-10-10 18:05:00,,0822.8,5.00,0.00,29.0,28.2,00.0,38.0,30.7,12.8,0000.0,0003.87,0001.74,0001.47
2021-10-10 18:06:00,,0822.8,5.01,0.00,29.0,28.2,00.0,38.0,30.7,12.8,0000.0,0003.84,0001.74,0001.46
2021-10-10 18:07:00,,0822.8,5.00,0.00,29.0,28.2,00.0,38.0,30.7,12.9,0000.0,0003.85,0001.73,0001.46
2021-10-10 18:08:00,,0822.8,5.00,0.00,29.0,28.2,00.0,38.0,30.7,13.0,0000.0,0003.91,0001.76,0001.47
2021-10-10 18:09:00,,0822.8,5.01,0.00,29.0,28.2,00.0,38.0,30.7,12.9,0000.0,0004.62,0001.77,0001.47
2021-10-10 18:10:00,,0822.7,5.00,0.00,29.0,28.2,00.0,38.0,30.8,12.8,0000.0,0003.99,0001.78,0001.47
2021-10-10 18:11:00,,0822.7,5.01,0.00,29.0,28.2,00.0,38.0,30.8,12.7,0000.0,0003.92,0001.78,0001.47
2021-10-10 18:12:00,,0822.7,5.00,0.00,29.0,28.2,00.0,38.0,30.8,12.7,0000.0,0003.84,0001.76,0001.47
2021-10-10 18:13:00,,0822.7,5.00,0.00,29.0,28.3,00.0,38.0,30.8,13.0,0000.0,0003.80,0001.75,0001.47
2021-10-10 18:14:00,,0822.6,5.00,0.00,29.0,28.3,00.0,38.1,30.8,12.8,0000.0,0003.79,0001.75,0001.46
2021-10-10 18:15:00,,0822.7,5.00,0.00,29.0,28.3,00.0,38.1,30.8,12.8,0000.0,0003.80,0001.76,0001.46
2021-10-10 18:16:00,,0822.7,5.01,0.00,29.1,28.3,00.0,38.1,30.8,13.0,0000.0,0003.78,0001.73,0001.46
2021-10-10 18:17:00,,0822.6,5.00,0.00,29.0,28.3,00.0,38.1,30.8,12.9,0000.0,0003.80,0001.74,0001.47
2021-10-10 18:18:00,,0822.6,5.02,0.00,29.0,28.3,00.0,38.1,30.8,12.8,0000.0,0003.77,0001.75,0001.49
2021-10-10 18:19:00,,0822.6,5.00,0.00,29.1,28.3,00.0,38.1,30.8,12.8,0000.0,0003.69,0001.73,0001.48
2021-10-10 18:20:00,,0822.6,5.00,0.00,29.1,28.3,00.0,38.1,30.8,12.9,0000.0,0002.67,0001.72,0001.47
2021-10-10 18:21:00,,0822.6,4.99,0.00,29.1,28.3,00.0,38.1,30.8,12.9,0000.0,0002.56,0001.73,0001.48
2021-10-10 18:22:00,,0822.6,5.00,0.00,29.0,28.3,00.0,38.1,30.8,13.0,0000.0,0002.74,0001.72,0001.47
2021-10-10 18:23:00,,0822.6,4.99,0.00,29.1,28.3,00.0,38.1,30.8,13.0,0000.0,0002.76,0001.72,0001.47
2021-10-10 18:24:00,,0822.6,5.01,0.00,29.1,28.3,00.0,38.1,30.8,13.1,0000.0,0002.77,0001.74,0001.49
2021-10-10 18:25:00,,0822.6,5.00,0.00,29.1,28.3,00.0,38.1,30.8,13.1,0000.0,0002.77,0001.74,0001.50
2021-10-10 18:26:00,,0822.6,4.99,0.00,29.1,28.3,00.0,38.1,30.8,12.9,0000.0,0002.64,0001.69,0001.50
2021-10-10 18:27:00,,0822.5,5.01,0.00,29.1,28.3,00.0,38.1,30.8,12.9,0000.0,0002.55,0001.69,0001.51
2021-10-10 18:28:00,,0822.4,5.01,0.00,29.1,28.3,00.0,38.2,30.8,12.9,0000.0,0002.52,0001.69,0001.51
2021-10-10 18:29:00,,0822.4,4.99,0.00,29.1,28.3,00.0,38.1,30.8,12.8,0000.0,0002.67,0001.68,0001.49
2021-10-10 18:30:00,,0822.4,5.01,0.00,29.1,28.4,00.0,38.1,30.8,12.9,0000.0,0004.07,0001.65,0001.49
2021-10-10 18:31:00,,0822.4,5.00,0.00,29.1,28.4,00.0,38.2,30.9,13.0,0000.0,0004.64,0001.67,0001.51
2021-10-10 18:32:00,,0822.4,5.00,0.00,29.1,28.4,00.0,38.2,30.9,12.8,0000.0,0004.76,0001.69,0001.51
2021-10-10 18:33:00,,0822.4,5.00,0.00,29.1,28.4,00.0,38.2,31.0,13.0,0000.0,0006.24,0001.70,0001.52
2021-10-10 18:34:00,,0822.4,5.00,0.00,29.1,28.4,00.0,38.2,31.0,12.9,0000.0,0006.18,0001.68,0001.51
2021-10-10 18:35:00,,0822.4,5.00,0.00,29.2,28.5,00.0,38.2,31.0,12.7,0000.0,0006.27,0001.70,0001.50
2021-10-10 18:36:00,,0822.4,5.00,0.00,29.2,28.5,00.0,38.2,31.0,12.7,0000.0,0006.34,0001.71,0001.50
2021-10-10 18:37:00,,0822.4,5.00,0.00,29.2,28.5,00.0,38.2,31.0,12.8,0000.0,0006.38,0001.72,0001.51
2021-10-10 18:38:00,,0822.4,4.99,0.00,29.2,28.5,00.0,38.2,31.0,12.8,0000.0,0006.50,0001.72,0001.51
2021-10-10 18:39:00,,0822.3,5.00,0.00,29.2,28.6,00.0,38.2,31.0,12.7,0000.0,0006.55,0001.74,0001.51
2021-10-10 18:40:00,,0822.3,5.00,0.00,29.3,28.6,00.0,38.2,31.0,13.0,0000.0,0006.47,0001.77,0001.52
2021-10-10 18:41:00,,0822.2,5.02,0.00,29.3,28.6,00.0,38.3,31.1,12.8,0000.0,0005.04,0001.78,0001.52
2021-10-10 18:42:00,,0822.2,4.99,0.00,29.3,28.6,00.0,38.3,31.1,12.5,0000.0,0004.52,0001.77,0001.51
2021-10-10 18:43:00,,0822.2,5.01,0.00,29.3,28.7,00.0,38.3,31.1,12.4,0000.0,0004.13,0001.74,0001.51
2021-10-10 18:44:00,,0822.1,5.00,0.00,29.3,28.7,00.0,38.3,31.1,12.6,0000.0,0002.51,0001.77,0001.50
2021-10-10 18:45:00,,0822.1,5.00,0.00,29.4,28.8,00.0,38.3,31.2,12.6,0000.0,0002.68,0001.83,0001.51
2021-10-10 18:46:00,,0822.1,4.99,0.00,29.4,28.8,00.0,38.3,31.2,12.6,0000.0,0002.62,0001.81,0001.51
2021-10-10 18:47:00,,0822.1,5.00,0.00,29.4,28.8,00.0,38.4,31.3,12.7,0000.0,0002.60,0001.82,0001.51
2021-10-10 18:48:00,,0822.1,5.00,0.00,29.5,28.8,00.0,38.4,31.3,12.8,0000.0,0002.55,0001.82,0001.51
2021-10-10 18:49:00,,0822.1,5.00,0.00,29.5,28.8,00.0,38.4,31.3,12.6,0000.0,0002.47,0001.83,0001.50
2021-10-10 18:50:00,,0822.1,5.00,0.00,29.5,28.8,00.0,38.4,31.3,12.6,0000.0,0002.57,0001.83,0001.49
2021-10-10 18:51:00,,0822.1,5.00,0.00,29.5,28.8,00.0,38.5,31.3,12.6,0000.0,0002.73,0001.84,0001.49
2021-10-10 18:52:00,,0822.1,4.99,0.00,29.5,28.8,00.0,38.5,31.3,12.4,0000.0,0002.84,0001.88,0001.49
2021-10-10 18:53:00,,0822.0,5.01,0.00,29.5,28.8,00.0,38.5,31.3,12.3,0000.0,0002.86,0001.90,0001.50
2021-10-10 18:54:00,,0822.0,5.02,0.00,29.5,28.9,00.0,38.5,31.3,12.3,0000.0,0002.90,0001.91,0001.51
2021-10-10 18:55:00,,0821.8,4.99,0.00,29.6,28.9,00.0,38.5,31.4,12.5,0000.0,0003.06,0001.93,0001.52
2021-10-10 18:56:00,,0821.9,5.00,0.00,29.6,28.9,00.0,38.5,31.4,12.7,0000.0,0003.14,0001.94,0001.54
2021-10-10 18:57:00,,0821.8,5.01,0.00,29.6,28.9,00.0,38.5,31.4,12.5,0000.0,0004.71,0001.99,0001.56
2021-10-10 18:58:00,,0822.0,5.00,0.00,29.6,29.0,00.0,38.6,31.4,12.6,0000.0,0005.89,0002.01,0001.56
2021-10-10 18:59:00,,0821.9,5.00,0.00,29.6,29.0,00.0,38.6,31.4,12.6,0000.0,0005.99,0002.03,0001.56
